KQ4KX Weather Reports


Display with metric or nautical units.
time (UTC)temp
F
wind
direction
speed
MPH
gust
MPH
rain 1hr
in
rain 24hr
in
rain mn
in
humidity
%
barometer
mb
20260504175701 82 93 7.0 15.0 0.00 0.00 0.00 59 1016.4
20260504175201 82 94 6.0 14.0 0.00 0.00 0.00 54 1016.5
20260504174701 82 93 6.0 14.0 0.00 0.00 0.00 57 1016.4
20260504174201 82 93 8.0 16.0 0.00 0.00 0.00 55 1016.4
20260504173701 82 91 9.0 16.0 0.00 0.00 0.00 55 1016.4
20260504173201 81 80 6.0 15.0 0.00 0.00 0.00 55 1016.6
20260504172701 81 70 4.0 10.0 0.00 0.00 0.00 54 1016.6
20260504172201 81 74 5.0 16.0 0.00 0.00 0.00 53 1016.7
20260504171701 81 84 7.0 16.0 0.00 0.00 0.00 53 1016.7
20260504171201 82 96 10.0 18.0 0.00 0.00 0.00 53 1016.7
20260504170631 82 100 9.0 18.0 0.00 0.00 0.00 56 1016.7
20260504170131 82 97 7.0 14.0 0.00 0.00 0.00 54 1017.0
20260504150601 78 69 6.0 14.0 0.00 0.00 0.00 62 1017.7
20260504141030 75 72 5.0 16.0 0.00 0.00 0.00 68 1017.4
20260504140530 75 70 5.0 16.0 0.00 0.00 0.00 67 1017.5
20260504110429 65 40 2.0 3.0 0.00 0.00 0.00 88 1016.2
20260504100358 64 19 1.0 3.0 0.00 0.00 0.00 90 1015.9
20260504081858 66 25 2.0 2.0 0.00 0.01 0.00 87 1015.7
20260504080259 67 18 1.0 2.0 0.00 0.02 0.00 86 1015.8
20260504045929 69 51 1.0 3.0 0.00 0.06 0.00 82 1017.2
20260504045359 69 51 2.0 3.0 0.00 0.06 0.00 82 1017.3
20260504044258 70 57 2.0 3.0 0.00 0.06 0.00 82 1017.3
20260504043259 70 55 1.0 3.0 0.00 0.06 0.00 81 1017.5
20260504041729 70 71 2.0 4.0 0.00 0.06 0.00 81 1017.6
20260504041159 70 70 2.0 6.0 0.00 0.06 0.00 80 1017.5
20260504040628 70 68 2.0 6.0 0.00 0.06 0.00 81 1017.5
20260504040129 70 73 3.0 6.0 0.00 0.06 0.00 81 1017.5
20260504035028 70 74 3.0 6.0 0.00 0.06 0.06 80 1017.5
20260504034458 70 76 3.0 6.0 0.00 0.07 0.06 80 1017.5
20260504033959 70 76 3.0 6.0 0.00 0.07 0.06 80 1017.4
20260504033428 70 75 3.0 6.0 0.00 0.07 0.06 80 1017.5
20260504032859 70 76 3.0 7.0 0.00 0.07 0.06 80 1017.3
20260504032358 70 76 3.0 7.0 0.00 0.07 0.06 80 1017.4
20260504031858 70 74 3.0 6.0 0.00 0.07 0.06 80 1017.4
20260504030259 70 76 3.0 7.0 0.00 0.08 0.06 80 1017.6
20260504025158 70 74 3.0 6.0 0.00 0.08 0.06 80 1017.4
20260504024658 70 76 3.0 6.0 0.00 0.08 0.06 81 1017.4
20260504023029 70 80 3.0 7.0 0.00 0.08 0.06 81 1017.3
20260504020929 71 83 4.0 8.0 0.00 0.08 0.06 81 1017.1
20260504020429 71 81 4.0 8.0 0.00 0.08 0.06 81 1017.0
20260504015858 71 80 4.0 10.0 0.00 0.08 0.06 80 1017.0
20260504015359 71 83 4.0 10.0 0.00 0.08 0.06 80 1016.9
20260504014858 71 85 5.0 9.0 0.00 0.08 0.06 80 1016.9
20260504012258 71 81 5.0 11.0 0.00 0.08 0.06 80 1016.7
20260504011158 72 78 4.0 11.0 0.00 0.08 0.06 79 1016.8
20260504010659 72 77 4.0 11.0 0.00 0.08 0.06 79 1016.8
20260504010129 72 77 4.0 10.0 0.00 0.08 0.06 79 1016.7
20260504005558 72 78 5.0 11.0 0.00 0.08 0.06 79 1016.6
20260504005059 72 76 4.0 10.0 0.00 0.08 0.06 78 1016.3
20260504004528 72 79 4.0 11.0 0.00 0.08 0.06 79 1016.3
20260504003458 72 78 3.0 10.0 0.00 0.08 0.06 78 1016.1
20260504002458 72 79 5.0 11.0 0.00 0.08 0.06 78 1016.1
20260504001928 73 79 6.0 12.0 0.00 0.08 0.06 77 1016.1
20260504001428 73 80 5.0 12.0 0.00 0.08 0.06 77 1016.1
20260504000928 73 84 5.0 12.0 0.00 0.08 0.06 77 1016.2
20260504000358 73 80 7.0 13.0 0.00 0.08 0.06 77 1016.0
20260503235858 73 80 8.0 14.0 0.00 0.08 0.06 77 1015.9
20260503233328 74 84 7.0 15.0 0.00 0.08 0.06 75 1015.9
20260503232829 74 78 8.0 14.0 0.00 0.08 0.06 75 1015.9
20260503231828 74 77 6.0 14.0 0.00 0.08 0.06 76 1015.8
20260503230828 74 84 8.0 17.0 0.00 0.08 0.06 76 1015.7
20260503230328 74 86 8.0 17.0 0.00 0.08 0.06 75 1015.8
20260503225758 74 76 7.0 15.0 0.00 0.09 0.06 77 1015.7
20260503224159 75 86 7.0 15.0 0.00 0.10 0.06 74 1015.8
20260503223628 75 83 6.0 13.0 0.00 0.11 0.06 74 1015.7
20260503223128 75 84 6.0 13.0 0.00 0.11 0.06 75 1015.8
20260503222558 75 86 7.0 14.0 0.00 0.11 0.06 74 1015.7
20260503222058 75 85 6.0 14.0 0.00 0.11 0.06 74 1015.6
20260503221559 76 85 8.0 15.0 0.00 0.11 0.06 73 1015.6
20260503221028 76 94 9.0 15.0 0.00 0.11 0.06 73 1015.7
20260503220528 76 97 9.0 15.0 0.00 0.11 0.06 73 1015.6
20260503220029 76 96 9.0 14.0 0.00 0.11 0.06 74 1015.6
20260503215458 76 89 7.0 14.0 0.00 0.11 0.06 74 1015.6
20260503214428 76 82 7.0 13.0 0.00 0.11 0.06 73 1015.5
20260503213928 76 83 6.0 14.0 0.00 0.11 0.06 73 1015.4
20260503213428 76 84 6.0 14.0 0.00 0.11 0.06 72 1015.5
20260503212858 76 83 6.0 13.0 0.00 0.11 0.06 72 1015.5
20260503211759 77 93 5.0 11.0 0.00 0.11 0.06 73 1015.4
20260503211258 76 89 5.0 14.0 0.00 0.11 0.06 71 1015.5
20260503210758 76 92 8.0 14.0 0.00 0.12 0.06 71 1015.5
20260503210228 76 91 8.0 14.0 0.00 0.12 0.06 70 1015.6
20260503204659 77 88 7.0 12.0 0.00 0.13 0.06 68 1015.7
20260503204158 77 95 10.0 14.0 0.00 0.13 0.06 70 1015.7
20260503203658 77 96 8.0 14.0 0.00 0.13 0.06 70 1015.7
20260503203158 77 88 4.0 14.0 0.00 0.13 0.06 71 1015.7
20260503202628 77 80 3.0 11.0 0.00 0.13 0.06 69 1015.7
20260503202128 76 82 6.0 13.0 0.00 0.13 0.06 69 1015.9
20260503201628 77 90 7.0 15.0 0.00 0.13 0.06 70 1016.0
20260503201128 78 85 5.0 15.0 0.00 0.13 0.06 68 1016.0
20260503200558 77 65 3.0 7.0 0.00 0.13 0.06 71 1016.0
20260503200058 77 73 3.0 11.0 0.00 0.14 0.06 69 1016.1
20260503195558 77 82 3.0 11.0 0.00 0.14 0.06 68 1016.2
20260503195028 77 84 3.0 11.0 0.00 0.14 0.06 71 1016.3
20260503194528 76 80 3.0 12.0 0.00 0.14 0.06 70 1016.4
20260503193958 76 79 4.0 12.0 0.00 0.14 0.06 71 1016.5
20260503192929 76 53 2.0 6.0 0.00 0.14 0.06 70 1016.7
20260503192429 76 76 3.0 11.0 0.00 0.14 0.06 72 1016.9
20260503191928 76 76 4.0 11.0 0.00 0.14 0.06 71 1016.8
20260503191429 76 75 4.0 10.0 0.00 0.14 0.06 70 1016.8
20260503190858 76 75 3.0 10.0 0.00 0.14 0.06 72 1017.0
20260503190358 76 53 2.0 6.0 0.00 0.14 0.06 72 1017.0
20260503185358 76 89 6.0 12.0 0.00 0.14 0.06 73 1017.2
20260503184828 76 88 5.0 12.0 0.00 0.14 0.06 73 1017.3
20260503184328 76 89 5.0 12.0 0.00 0.14 0.06 73 1017.3
20260503183228 76 88 5.0 14.0 0.00 0.14 0.06 73 1017.5
20260503182658 76 89 4.0 11.0 0.00 0.14 0.06 73 1017.5
20260503182158 75 83 5.0 14.0 0.00 0.14 0.06 74 1017.6
20260503181128 75 93 8.0 17.0 0.00 0.14 0.06 74 1017.6